This demonstration page uses our WeatherBlox Daily Observations layout. Learn more.

Left ArrowRight Arrow

Hourly Observations for July 4, 2022

Temp ( °F °C ) Dew Point ( °F °C ) Humidity (%) Winds ( mph kmh ) Pressure ( in mb ) Visibility ( mi km ) Precip ( " mm )
12:56 am 00:56 Partly Cloudy 78 25.7 72 22 80 80 SE 10 17 29.91 1013 10 16 0.00 0.00
1:56 am 01:56 Mostly Cloudy 78 25.5 72 22.2 82 82 SSE 9 15 29.92 1013 10 16 0.00 0.00
2:56 am 02:56 Cloudy with Thunderstorms 79 26 71 21.4 76 76 S 6 9 29.91 1013 10 16 0.00 0.00
3:56 am 03:56 Mostly Cloudy 77 24.9 71 21.6 82 82 SW 3 6 29.92 1013 10 16 0.00 0.00
4:56 am 04:56 Mostly Cloudy 76 24.5 70 21.2 82 82 ESE 5 7 29.92 1013 10 16 0.00 0.00
5:30 am 05:30 Mostly Cloudy with Light Rain 75 24 70 21 83 83 E 3 6 29.93 1014 10 16 0.00 0.00
5:56 am 05:56 Partly Cloudy with Light Rain 74 23.5 70 21.2 87 87 ESE 7 11 29.91 1013 10 16 0.00 0.00
6:56 am 06:56 Cloudy with Light Rain 74 23.1 70 21 88 88 SSE 7 11 29.89 1012 10 16 0.03 0.76
7:56 am 07:56 Mostly Cloudy with Light Showers 74 23.1 70 21.2 89 89 SE 5 7 29.91 1013 10 16 0.00 0.00
8:56 am 08:56 Mostly Cloudy 76 24.6 71 21.7 84 84 SE 10 17 29.89 1012 10 16 0.00 0.00
9:56 am 09:56 Partly Cloudy 82 27.6 72 22.3 73 73 S 13 20 29.85 1011 10 16 0.00 0.00
10:56 am 10:56 Mostly Cloudy 86 30.2 70 21 58 58 S 18 30 29.83 1010 10 16 0.00 0.00
11:56 am 11:56 Sunny 90 32.4 69 20.6 50 50 SSW 16 26 29.84 1011 10 16 0.00 0.00
12:56 pm 12:56 undefined 93 33.7 69 20.4 46 46 S 17 28 29.83 1010 10 16 0.00 0.00
1:56 pm 13:56 undefined 95 35.1 68 20.2 42 42 S 21 33 29.81 1009 10 16 0.00 0.00
2:56 pm 14:56 undefined 97 35.9 67 19.7 39 39 SSW 18 30 29.79 1009 10 16 0.00 0.00
3:56 pm 15:56 Mostly Sunny 99 37 67 19.4 36 36 SSW 13 20 29.79 1009 10 16 0.00 0.00
4:56 pm 16:56 Mostly Sunny 98 36.8 67 19.2 36 36 SSW 18 30 29.79 1009 10 16 0.00 0.00
5:56 pm 17:56 Mostly Sunny 97 36.3 67 19.7 38 38 SSW 18 30 29.79 1009 10 16 0.00 0.00
6:56 pm 18:56 Mostly Sunny 96 35.4 68 20.1 41 41 S 13 20 29.78 1009 10 16 0.00 0.00
7:56 pm 19:56 Mostly Sunny 93 33.9 70 21 47 47 S 9 15 29.79 1009 10 16 0.00 0.00
8:56 pm 20:56 Sunny 90 32 70 20.9 52 52 S 9 15 29.80 1009 10 16 0.00 0.00
9:56 pm 21:56 Clear 87 30.7 70 20.9 56 56 S 7 11 29.81 1010 10 16 0.00 0.00
10:56 pm 22:56 Clear 86 30.1 71 21.4 60 60 S 10 17 29.83 1010 10 16 0.00 0.00
11:56 pm 23:56 Clear 82 28 72 22 70 70 SE 3 6 29.84 1010 10 16 0.00 0.00

Powered by AerisWeather